• In Hungary
  • List of Countries
  • For 7 days
  • Water Temperature
  • Satellite Maps
  • Weather Map
  • News
  • Weather Widgets
  • user-avatar
    Login

    Hourly Weather Islamabad

    Today, 21 November, Tuesday

    Time Temperature Precipitation Wind Pressure Humidity
    00:00 +14°C° 0 mm 2 mps 718 mmHg 25%
    01:00 +13°C° 0 mm 3 mps 718 mmHg 26%
    02:00 +13°C° 0 mm 3 mps 718 mmHg 26%
    03:00 +12°C° 0 mm 3 mps 718 mmHg 26%
    04:00 +12°C° 0 mm 3 mps 718 mmHg 26%
    05:00 +12°C° 0 mm 3 mps 717 mmHg 26%
    06:00 +12°C° 0 mm 3 mps 717 mmHg 26%
    07:00 +13°C° 0 mm 3 mps 717 mmHg 26%
    08:00 +13°C° 0 mm 3 mps 718 mmHg 25%
    09:00 +17°C° 0 mm 3 mps 718 mmHg 22%
    10:00 +19°C° 0 mm 3 mps 718 mmHg 18%
    11:00 +22°C° 0 mm 3 mps 718 mmHg 14%
    12:00 +24°C° 0 mm 3 mps 718 mmHg 14%
    13:00 +24°C° 0 mm 3 mps 717 mmHg 13%
    14:00 +25°C° 0 mm 3 mps 717 mmHg 13%
    15:00 +22°C° 0 mm 3 mps 717 mmHg 15%
    16:00 +20°C° 0 mm 2 mps 716 mmHg 18%
    17:00 +18°C° 0 mm 2 mps 716 mmHg 20%
    18:00 +17°C° 0 mm 2 mps 716 mmHg 20%
    19:00 +16°C° 0 mm 2 mps 717 mmHg 20%
    20:00 +16°C° 0 mm 2 mps 717 mmHg 20%
    21:00 +15°C° 0 mm 2 mps 717 mmHg 20%
    22:00 +15°C° 0 mm 2 mps 717 mmHg 20%
    23:00 +14°C° 0 mm 2 mps 717 mmHg 20%

    Tomorrow, 22 November, Wednesday

    Time Temperature Precipitation Wind Pressure Humidity
    00:00 +14°C° 0 mm 2 mps 717 mmHg 20%
    01:00 +13°C° 0 mm 2 mps 717 mmHg 20%
    02:00 +13°C° 0 mm 2 mps 717 mmHg 20%
    03:00 +12°C° 0 mm 3 mps 717 mmHg 20%
    04:00 +11°C° 0 mm 3 mps 717 mmHg 20%
    05:00 +11°C° 0 mm 3 mps 717 mmHg 20%
    06:00 +12°C° 0 mm 3 mps 717 mmHg 21%
    07:00 +12°C° 0 mm 3 mps 717 mmHg 21%
    08:00 +14°C° 0 mm 2 mps 718 mmHg 21%
    09:00 +16°C° 0 mm 2 mps 718 mmHg 18%
    10:00 +19°C° 0 mm 2 mps 718 mmHg 16%
    11:00 +21°C° 0 mm 2 mps 719 mmHg 13%
    12:00 +23°C° 0 mm 2 mps 718 mmHg 13%
    13:00 +24°C° 0 mm 3 mps 718 mmHg 12%
    14:00 +25°C° 0 mm 3 mps 717 mmHg 12%
    15:00 +23°C° 0 mm 2 mps 717 mmHg 14%
    16:00 +20°C° 0 mm 2 mps 717 mmHg 16%
    17:00 +18°C° 0 mm 2 mps 716 mmHg 19%
    18:00 +17°C° 0 mm 2 mps 716 mmHg 19%
    19:00 +16°C° 0 mm 2 mps 717 mmHg 19%
    20:00 +15°C° 0 mm 2 mps 717 mmHg 18%
    21:00 +15°C° 0 mm 2 mps 717 mmHg 18%
    22:00 +14°C° 0 mm 2 mps 717 mmHg 18%
    23:00 +14°C° 0 mm 2 mps 717 mmHg 17%

    Day after tomorrow, 23 November, Thursday

    Time Temperature Precipitation Wind Pressure Humidity
    00:00 +14°C° 0 mm 2 mps 716 mmHg 17%
    01:00 +13°C° 0 mm 2 mps 716 mmHg 17%
    02:00 +12°C° 0 mm 3 mps 716 mmHg 16%
    03:00 +12°C° 0 mm 3 mps 716 mmHg 16%
    04:00 +12°C° 0 mm 3 mps 715 mmHg 16%
    05:00 +11°C° 0 mm 3 mps 715 mmHg 16%
    06:00 +13°C° 0 mm 2 mps 715 mmHg 16%
    07:00 +14°C° 0 mm 2 mps 716 mmHg 16%
    08:00 +14°C° 0 mm 2 mps 716 mmHg 16%
    09:00 +17°C° 0 mm 2 mps 716 mmHg 14%
    10:00 +19°C° 0 mm 2 mps 717 mmHg 12%
    11:00 +21°C° 0 mm 2 mps 717 mmHg 10%
    12:00 +23°C° 0 mm 2 mps 717 mmHg 10%
    13:00 +24°C° 0 mm 2 mps 717 mmHg 10%
    14:00 +24°C° 0 mm 2 mps 716 mmHg 10%
    15:00 +21°C° 0 mm 2 mps 716 mmHg 12%
    16:00 +20°C° 0 mm 2 mps 716 mmHg 14%
    17:00 +19°C° 0 mm 1 mps 716 mmHg 17%
    18:00 +18°C° 0 mm 1 mps 716 mmHg 17%
    19:00 +18°C° 0 mm 1 mps 716 mmHg 17%
    20:00 +16°C° 0 mm 1 mps 716 mmHg 17%
    21:00 +16°C° 0 mm 1 mps 717 mmHg 17%
    22:00 +15°C° 0 mm 1 mps 717 mmHg 16%
    23:00 +14°C° 0 mm 2 mps 717 mmHg 16%

    24 November, Friday

    Time Temperature Precipitation Wind Pressure Humidity
    00:00 +14°C° 0 mm 2 mps 717 mmHg 16%
    01:00 +14°C° 0 mm 2 mps 717 mmHg 15%
    02:00 +13°C° 0 mm 2 mps 716 mmHg 15%
    03:00 +13°C° 0 mm 2 mps 716 mmHg 14%
    04:00 +13°C° 0 mm 2 mps 716 mmHg 14%
    05:00 +13°C° 0 mm 2 mps 716 mmHg 14%
    06:00 +13°C° 0 mm 2 mps 716 mmHg 14%
    07:00 +14°C° 0 mm 2 mps 717 mmHg 15%
    08:00 +15°C° 0 mm 2 mps 717 mmHg 15%
    09:00 +17°C° 0 mm 2 mps 718 mmHg 13%
    10:00 +20°C° 0 mm 2 mps 718 mmHg 11%
    11:00 +23°C° 0 mm 2 mps 719 mmHg 9%
    12:00 +24°C° 0 mm 2 mps 718 mmHg 9%
    13:00 +25°C° 0 mm 3 mps 718 mmHg 9%
    14:00 +25°C° 0 mm 3 mps 717 mmHg 9%
    15:00 +23°C° 0 mm 2 mps 717 mmHg 12%
    16:00 +20°C° 0 mm 2 mps 717 mmHg 14%
    17:00 +19°C° 0 mm 1 mps 716 mmHg 16%
    18:00 +17°C° 0 mm 2 mps 717 mmHg 16%
    19:00 +17°C° 0 mm 2 mps 717 mmHg 16%
    20:00 +16°C° 0 mm 2 mps 717 mmHg 17%
    21:00 +16°C° 0 mm 2 mps 717 mmHg 16%
    22:00 +16°C° 0 mm 2 mps 717 mmHg 16%
    23:00 +16°C° 0 mm 2 mps 717 mmHg 16%

    25 November, Saturday

    Time Temperature Precipitation Wind Pressure Humidity
    00:00 +15°C° 0 mm 2 mps 717 mmHg 16%
    01:00 +15°C° 0 mm 2 mps 717 mmHg 16%
    02:00 +15°C° 0 mm 2 mps 716 mmHg 16%
    03:00 +14°C° 0 mm 2 mps 716 mmHg 16%
    04:00 +14°C° 0 mm 2 mps 716 mmHg 16%
    05:00 +14°C° 0 mm 2 mps 716 mmHg 16%
    06:00 +14°C° 0 mm 2 mps 717 mmHg 17%
    07:00 +15°C° 0 mm 2 mps 717 mmHg 17%
    08:00 +16°C° 0 mm 2 mps 717 mmHg 18%
    09:00 +18°C° 0 mm 2 mps 718 mmHg 16%
    10:00 +21°C° 0 mm 2 mps 718 mmHg 14%
    11:00 +24°C° 0 mm 2 mps 718 mmHg 11%
    12:00 +25°C° 0 mm 2 mps 718 mmHg 11%
    13:00 +25°C° 0 mm 2 mps 717 mmHg 11%
    14:00 +26°C° 0 mm 3 mps 717 mmHg 11%
    15:00 +24°C° 0 mm 2 mps 717 mmHg 14%
    16:00 +21°C° 0 mm 2 mps 716 mmHg 16%
    17:00 +20°C° 0 mm 1 mps 716 mmHg 19%
    18:00 +19°C° 0 mm 1 mps 716 mmHg 20%
    19:00 +18°C° 0 mm 1 mps 717 mmHg 20%
    20:00 +18°C° 0 mm 1 mps 717 mmHg 20%
    21:00 +16°C° 0 mm 2 mps 717 mmHg 21%
    22:00 +16°C° 0 mm 2 mps 718 mmHg 21%
    23:00 +16°C° 0 mm 2 mps 718 mmHg 21%

    26 November, Sunday

    Time Temperature Precipitation Wind Pressure Humidity
    00:00 +15°C° 0 mm 2 mps 718 mmHg 20%
    01:00 +15°C° 0 mm 2 mps 718 mmHg 20%
    02:00 +15°C° 0 mm 2 mps 718 mmHg 19%
    03:00 +15°C° 0 mm 2 mps 718 mmHg 19%
    04:00 +15°C° 0 mm 2 mps 718 mmHg 19%
    05:00 +14°C° 0 mm 2 mps 718 mmHg 19%
    06:00 +15°C° 0 mm 2 mps 718 mmHg 19%
    07:00 +15°C° 0 mm 2 mps 718 mmHg 20%
    08:00 +16°C° 0 mm 2 mps 719 mmHg 20%
    09:00 +18°C° 0 mm 2 mps 719 mmHg 18%
    10:00 +21°C° 0 mm 2 mps 720 mmHg 15%
    11:00 +24°C° 0 mm 2 mps 720 mmHg 13%
    12:00 +25°C° 0 mm 2 mps 719 mmHg 13%
    13:00 +26°C° 0 mm 3 mps 719 mmHg 13%
    14:00 +26°C° 0 mm 3 mps 718 mmHg 13%
    15:00 +24°C° 0 mm 2 mps 718 mmHg 15%
    16:00 +21°C° 0 mm 2 mps 717 mmHg 18%
    17:00 +19°C° 0 mm 2 mps 717 mmHg 21%
    18:00 +19°C° 0 mm 2 mps 717 mmHg 21%
    19:00 +18°C° 0 mm 2 mps 717 mmHg 22%
    20:00 +17°C° 0 mm 2 mps 718 mmHg 22%
    21:00 +17°C° 0 mm 2 mps 718 mmHg 23%
    22:00 +16°C° 0 mm 2 mps 718 mmHg 23%
    23:00 +16°C° 0 mm 2 mps 717 mmHg 23%
    Show more